BEARDSLEY LAKE (BRD)

Elevation: 3398' · STANISLAUS R basin · Operator: US Bureau of Reclamation

Provisional data, subject to change.
Query executed Tuesday at 8:09:56   clock

Select a sensor type for a plot of data.
Note: Reservoir Flows are daily averages.

Earlier

Date STORAGE    RES CHG    OUTFLOW    PPT INC   
 AF   AF   CFS   INCHES  
02/04/2015 23423 -121 205 0.00
02/05/2015 23313 -110 200 0.00
02/06/2015 23322 9 197 0.00
02/07/2015 23517 195 198 1.91
02/08/2015 23952 435 198 0.86
02/09/2015 24798 846 201 1.26
02/10/2015 25073 275 202 0.00
02/11/2015 25184 111 201 0.00
02/12/2015 25335 151 203 0.00
02/13/2015 25520 185 205 0.00
02/14/2015 25668 148 198 0.00
02/15/2015 25710 42 196 0.00
02/16/2015 25896 186 196 0.00
02/17/2015 25991 95 197 0.00
02/18/2015 26375 384 197 0.00
02/19/2015 26613 238 197 0.00
02/20/2015 26719 106 198 0.00
02/21/2015 27173 454 197 0.00
02/22/2015 27678 505 197 0.00
02/23/2015 28202 524 199 0.00
02/24/2015 28743 541 199 0.00
02/25/2015 28612 -131 198 0.00
02/26/2015 28421 -191 198 0.00
02/27/2015 28304 -117 198 0.00
02/28/2015 28262 -42 140 0.46
03/01/2015 28457 195 36 0.07
03/02/2015 28561 104 65 0.05
03/03/2015 -- -- -- --

Later | Latest

Warning! This data is preliminary and subject to revision.

Show BRD Map | Plot BRD Data | 1 Month BRD Data | Real-Time BRD Data | BRD Info